Time,TemperatureF,DewpointF,PressureIn,WindDirection,WindDirectionDegrees,WindSpeedMPH,WindSpeedGustMPH,Humidity,HourlyPrecipIn,Conditions,Clouds,dailyrainin,SoftwareType,DateUTC
2013-08-01 00:01:00,68.0,65.3,30.02,South,180,3.6,4.0,91,0.00,,,0.00,WUHU216HW,2013-08-01 04:01:00,
2013-08-01 00:02:00,68.2,65.4,30.02,SSW,203,2.0,4.0,91,0.00,,,0.00,WUHU216HW,2013-08-01 04:02:00,
2013-08-01 00:07:00,68.0,65.3,30.02,SW,225,2.0,4.0,91,0.00,,,0.00,WUHU216HW,2013-08-01 04:07:00,
2013-08-01 00:12:00,68.0,65.3,30.02,SW,225,2.5,3.8,91,0.00,,,0.00,WUHU216HW,2013-08-01 04:12:00,
2013-08-01 00:17:00,68.0,65.3,30.02,South,180,0.4,3.8,91,0.00,,,0.00,WUHU216HW,2013-08-01 04:17:00,
2013-08-01 00:22:00,68.0,65.3,30.02,WSW,248,1.3,3.4,91,0.00,,,0.00,WUHU216HW,2013-08-01 04:22:00,
2013-08-01 00:27:00,68.0,65.3,30.02,NW,315,0.7,3.4,91,0.00,,,0.00,WUHU216HW,2013-08-01 04:27:00,
2013-08-01 00:32:00,67.9,65.1,30.01,SSW,203,1.3,2.5,91,0.00,,,0.00,WUHU216HW,2013-08-01 04:32:00,
2013-08-01 00:37:00,67.9,65.1,30.01,SSW,203,2.5,2.5,91,0.00,,,0.00,WUHU216HW,2013-08-01 04:37:00,
2013-08-01 00:42:00,67.7,64.9,30.01,SSW,203,0.4,2.5,91,0.00,,,0.00,WUHU216HW,2013-08-01 04:42:00,
2013-08-01 00:47:00,67.7,64.9,30.01,SW,225,1.3,2.5,91,0.00,,,0.00,WUHU216HW,2013-08-01 04:47:00,
2013-08-01 00:52:00,67.7,64.9,30.01,SSW,203,0.7,2.5,91,0.00,,,0.00,WUHU216HW,2013-08-01 04:52:00,
2013-08-01 00:57:00,67.5,64.7,30.01,WSW,248,1.1,1.8,91,0.00,,,0.00,WUHU216HW,2013-08-01 04:57:00,
2013-08-01 01:02:00,67.5,64.7,30.00,WSW,248,1.6,2.2,91,0.00,,,0.00,WUHU216HW,2013-08-01 05:02:00,
2013-08-01 01:07:00,67.5,64.7,30.00,SW,225,1.1,2.2,91,0.00,,,0.00,WUHU216HW,2013-08-01 05:07:00,
2013-08-01 01:12:00,67.3,64.5,30.00,SW,225,0.0,1.6,91,0.00,,,0.00,WUHU216HW,2013-08-01 05:12:00,
2013-08-01 01:17:00,67.3,64.5,30.00,SE,135,0.4,1.6,91,0.00,,,0.00,WUHU216HW,2013-08-01 05:17:00,
2013-08-01 01:22:00,67.3,64.5,30.00,SE,135,0.9,1.6,91,0.01,,,0.01,WUHU216HW,2013-08-01 05:22:00,
2013-08-01 01:27:00,67.1,64.4,30.00,SE,135,1.3,2.0,91,0.01,,,0.01,WUHU216HW,2013-08-01 05:27:00,
2013-08-01 01:32:00,67.0,64.5,29.99,SE,135,1.1,2.0,92,0.01,,,0.01,WUHU216HW,2013-08-01 05:32:00,
2013-08-01 01:37:00,67.0,64.2,29.99,SE,135,0.4,2.0,91,0.01,,,0.01,WUHU216HW,2013-08-01 05:37:00,
2013-08-01 01:42:00,67.0,64.5,29.99,SE,135,0.7,1.1,92,0.01,,,0.01,WUHU216HW,2013-08-01 05:42:00,
2013-08-01 01:47:00,67.0,64.5,29.99,SE,135,0.7,1.1,92,0.01,,,0.01,WUHU216HW,2013-08-01 05:47:00,
2013-08-01 01:52:00,67.0,64.5,29.99,SSE,158,0.2,0.9,92,0.01,,,0.01,WUHU216HW,2013-08-01 05:52:00,
2013-08-01 01:57:00,66.8,64.0,29.98,South,180,0.0,0.7,91,0.01,,,0.01,WUHU216HW,2013-08-01 05:57:00,
2013-08-01 02:02:00,66.8,64.4,29.98,SW,225,1.1,1.1,92,0.01,,,0.01,WUHU216HW,2013-08-01 06:02:00,
2013-08-01 02:07:00,66.8,64.6,29.98,SW,225,0.4,1.6,93,0.01,,,0.01,WUHU216HW,2013-08-01 06:07:00,
2013-08-01 02:12:00,66.8,64.6,29.98,SSW,203,0.4,1.6,93,0.01,,,0.01,WUHU216HW,2013-08-01 06:12:00,
2013-08-01 02:18:00,66.8,64.6,29.97,SSW,203,0.4,0.9,93,0.01,,,0.01,WUHU216HW,2013-08-01 06:18:00,
2013-08-01 02:23:00,66.8,64.6,29.97,WSW,248,0.7,0.9,93,0.00,,,0.01,WUHU216HW,2013-08-01 06:23:00,
2013-08-01 02:28:00,66.8,64.6,29.97,SSW,203,0.7,1.1,93,0.01,,,0.02,WUHU216HW,2013-08-01 06:28:00,
2013-08-01 02:33:00,66.8,64.6,29.97,SSW,203,0.9,1.6,93,0.01,,,0.02,WUHU216HW,2013-08-01 06:33:00,
2013-08-01 02:38:00,66.8,64.6,29.97,SW,225,0.4,1.8,93,0.01,,,0.02,WUHU216HW,2013-08-01 06:38:00,
2013-08-01 02:43:00,66.8,64.6,29.97,West,270,1.3,1.8,93,0.02,,,0.03,WUHU216HW,2013-08-01 06:43:00,
2013-08-01 02:48:00,66.8,64.6,29.97,West,270,1.3,2.5,93,0.02,,,0.03,WUHU216HW,2013-08-01 06:48:00,
2013-08-01 02:52:00,67.0,64.8,29.97,SW,225,0.0,2.5,93,0.02,,,0.03,WUHU216HW,2013-08-01 06:52:00,
2013-08-01 02:57:00,66.8,64.6,29.96,West,270,0.7,2.2,93,0.02,,,0.03,WUHU216HW,2013-08-01 06:57:00,
2013-08-01 03:02:00,66.8,64.6,29.96,West,270,2.5,2.5,93,0.02,,,0.03,WUHU216HW,2013-08-01 07:02:00,
2013-08-01 03:07:00,66.8,64.6,29.96,SSW,203,0.0,2.5,93,0.02,,,0.03,WUHU216HW,2013-08-01 07:07:00,
2013-08-01 03:12:00,67.0,64.8,29.96,WSW,248,1.1,2.5,93,0.02,,,0.03,WUHU216HW,2013-08-01 07:12:00,
2013-08-01 03:17:00,67.0,64.8,29.95,WSW,248,0.2,1.1,93,0.02,,,0.03,WUHU216HW,2013-08-01 07:17:00,
2013-08-01 03:22:00,66.8,64.4,29.95,WSW,248,0.4,1.1,92,0.02,,,0.03,WUHU216HW,2013-08-01 07:22:00,
2013-08-01 03:27:00,66.8,64.4,29.95,West,270,0.4,1.1,92,0.01,,,0.03,WUHU216HW,2013-08-01 07:27:00,
2013-08-01 03:32:00,66.6,64.2,29.95,NW,315,0.7,1.1,92,0.02,,,0.04,WUHU216HW,2013-08-01 07:32:00,
2013-08-01 03:37:00,66.6,64.2,29.94,West,270,0.9,2.7,92,0.02,,,0.04,WUHU216HW,2013-08-01 07:37:00,
2013-08-01 03:42:00,66.4,64.0,29.94,West,270,1.6,2.7,92,0.02,,,0.05,WUHU216HW,2013-08-01 07:42:00,
2013-08-01 03:47:00,66.2,63.8,29.94,West,270,0.2,2.0,92,0.02,,,0.05,WUHU216HW,2013-08-01 07:47:00,
2013-08-01 03:53:00,66.2,64.1,29.94,West,270,0.9,2.2,93,0.02,,,0.05,WUHU216HW,2013-08-01 07:53:00,
2013-08-01 03:58:00,66.1,63.4,29.94,West,270,1.3,2.5,91,0.02,,,0.05,WUHU216HW,2013-08-01 07:58:00,
2013-08-01 04:03:00,66.1,63.6,29.94,West,270,1.6,2.5,92,0.02,,,0.05,WUHU216HW,2013-08-01 08:03:00,
2013-08-01 04:08:00,66.1,63.6,29.94,West,270,0.7,1.8,92,0.02,,,0.05,WUHU216HW,2013-08-01 08:08:00,
2013-08-01 04:14:00,66.2,64.1,29.94,WSW,248,0.9,1.8,93,0.02,,,0.05,WUHU216HW,2013-08-01 08:14:00,
2013-08-01 04:19:00,66.2,64.1,29.93,West,270,1.3,2.0,93,0.05,,,0.08,WUHU216HW,2013-08-01 08:19:00,
2013-08-01 04:24:00,66.2,63.8,29.94,NW,315,1.8,2.2,92,0.05,,,0.08,WUHU216HW,2013-08-01 08:24:00,
2013-08-01 04:29:00,66.1,63.6,29.93,WSW,248,2.0,3.4,92,0.04,,,0.08,WUHU216HW,2013-08-01 08:29:00,
2013-08-01 04:34:00,66.1,63.6,29.93,WSW,248,0.9,3.4,92,0.05,,,0.09,WUHU216HW,2013-08-01 08:34:00,
2013-08-01 04:40:00,65.9,63.5,29.93,WSW,248,1.8,2.0,92,0.05,,,0.09,WUHU216HW,2013-08-01 08:40:00,
2013-08-01 04:45:00,65.9,63.5,29.93,West,270,1.6,2.7,92,0.04,,,0.09,WUHU216HW,2013-08-01 08:45:00,
2013-08-01 04:50:00,65.9,63.5,29.93,NW,315,1.1,2.7,92,0.04,,,0.09,WUHU216HW,2013-08-01 08:50:00,
2013-08-01 04:55:00,65.9,63.5,29.92,WSW,248,1.3,2.5,92,0.04,,,0.09,WUHU216HW,2013-08-01 08:55:00,
2013-08-01 05:00:00,65.9,63.5,29.92,WSW,248,1.6,2.5,92,0.04,,,0.09,WUHU216HW,2013-08-01 09:00:00,
2013-08-01 05:07:00,65.9,63.7,29.92,WSW,248,1.3,2.5,93,0.04,,,0.09,WUHU216HW,2013-08-01 09:07:00,
2013-08-01 05:12:00,65.9,63.5,29.92,West,270,1.8,1.8,92,0.04,,,0.09,WUHU216HW,2013-08-01 09:12:00,
2013-08-01 05:17:00,65.9,63.5,29.92,West,270,1.8,1.8,92,0.01,,,0.09,WUHU216HW,2013-08-01 09:17:00,
2013-08-01 05:22:00,65.9,63.5,29.92,West,270,0.7,2.5,92,0.01,,,0.09,WUHU216HW,2013-08-01 09:22:00,
2013-08-01 05:28:00,65.9,63.5,29.92,West,270,2.0,2.5,92,0.01,,,0.09,WUHU216HW,2013-08-01 09:28:00,
2013-08-01 05:33:00,65.9,63.5,29.92,WSW,248,2.9,2.9,92,0.00,,,0.09,WUHU216HW,2013-08-01 09:33:00,
2013-08-01 05:38:00,65.9,63.5,29.93,WSW,248,1.8,2.9,92,0.00,,,0.09,WUHU216HW,2013-08-01 09:38:00,
2013-08-01 05:43:00,65.9,63.7,29.93,WSW,248,1.3,3.6,93,0.00,,,0.09,WUHU216HW,2013-08-01 09:43:00,
2013-08-01 05:48:00,66.1,63.9,29.93,SW,225,0.9,3.6,93,0.00,,,0.09,WUHU216HW,2013-08-01 09:48:00,
2013-08-01 05:53:00,65.9,63.7,29.92,SSW,203,0.2,2.0,93,0.01,,,0.10,WUHU216HW,2013-08-01 09:53:00,
2013-08-01 05:59:00,65.9,63.7,29.92,SE,135,0.0,1.3,93,0.01,,,0.10,WUHU216HW,2013-08-01 09:59:00,
2013-08-01 06:04:00,65.9,63.5,29.92,SSW,203,0.0,0.7,92,0.01,,,0.10,WUHU216HW,2013-08-01 10:04:00,
2013-08-01 06:09:00,65.7,63.3,29.92,WSW,248,0.7,0.7,92,0.01,,,0.10,WUHU216HW,2013-08-01 10:09:00,
2013-08-01 06:15:00,65.9,63.7,29.93,SSW,203,1.1,1.1,93,0.01,,,0.10,WUHU216HW,2013-08-01 10:15:00,
2013-08-01 06:20:00,65.7,63.6,29.93,SW,225,0.0,2.0,93,0.01,,,0.10,WUHU216HW,2013-08-01 10:20:00,
2013-08-01 06:25:00,65.7,63.6,29.93,WSW,248,0.7,2.0,93,0.01,,,0.10,WUHU216HW,2013-08-01 10:25:00,
2013-08-01 06:30:00,65.5,63.5,29.93,WNW,293,1.1,1.1,93,0.01,,,0.10,WUHU216HW,2013-08-01 10:30:00,
2013-08-01 06:35:00,65.5,63.5,29.93,SSW,203,0.4,1.6,93,0.01,,,0.10,WUHU216HW,2013-08-01 10:35:00,
2013-08-01 06:41:00,65.5,63.5,29.93,SW,225,0.0,1.6,93,0.01,,,0.10,WUHU216HW,2013-08-01 10:41:00,
2013-08-01 06:47:00,65.5,63.5,29.93,SSW,203,0.0,0.7,93,0.01,,,0.10,WUHU216HW,2013-08-01 10:47:00,
2013-08-01 06:52:00,65.7,63.6,29.92,ESE,113,1.3,1.6,93,0.00,,,0.10,WUHU216HW,2013-08-01 10:52:00,
2013-08-01 06:57:00,65.9,63.7,29.92,SE,135,0.9,1.8,93,0.00,,,0.10,WUHU216HW,2013-08-01 10:57:00,
2013-08-01 07:02:00,65.7,63.6,29.92,SE,135,0.0,1.8,93,0.00,,,0.10,WUHU216HW,2013-08-01 11:02:00,
2013-08-01 07:07:00,65.7,63.6,29.92,SW,225,0.0,0.9,93,0.00,,,0.10,WUHU216HW,2013-08-01 11:07:00,
2013-08-01 07:13:00,65.9,63.7,29.93,SSW,203,0.7,1.1,93,0.00,,,0.10,WUHU216HW,2013-08-01 11:13:00,
2013-08-01 07:18:00,65.9,63.7,29.92,SSW,203,0.0,1.1,93,0.00,,,0.10,WUHU216HW,2013-08-01 11:18:00,
2013-08-01 07:24:00,65.9,63.7,29.93,SSW,203,0.0,0.4,93,0.00,,,0.10,WUHU216HW,2013-08-01 11:24:00,
2013-08-01 07:29:00,66.1,63.9,29.92,SSW,203,0.0,0.7,93,0.00,,,0.10,WUHU216HW,2013-08-01 11:29:00,
2013-08-01 07:35:00,66.4,64.6,29.93,South,180,0.2,0.7,94,0.00,,,0.10,WUHU216HW,2013-08-01 11:35:00,
2013-08-01 07:40:00,66.6,64.8,29.93,SSE,158,0.2,0.7,94,0.00,,,0.10,WUHU216HW,2013-08-01 11:40:00,
2013-08-01 07:45:00,66.6,64.8,29.94,ESE,113,1.1,1.3,94,0.00,,,0.10,WUHU216HW,2013-08-01 11:45:00,
2013-08-01 07:50:00,66.8,65.0,29.94,SW,225,1.1,1.3,94,0.00,,,0.10,WUHU216HW,2013-08-01 11:50:00,
2013-08-01 07:56:00,66.8,65.0,29.93,SSW,203,0.7,1.3,94,0.00,,,0.10,WUHU216HW,2013-08-01 11:56:00,
2013-08-01 08:01:00,67.0,64.8,29.93,ESE,113,0.0,1.6,93,0.00,,,0.10,WUHU216HW,2013-08-01 12:01:00,
2013-08-01 08:06:00,67.3,65.2,29.93,ESE,113,0.0,1.6,93,0.00,,,0.10,WUHU216HW,2013-08-01 12:06:00,
2013-08-01 08:12:00,67.9,65.7,29.93,SE,135,0.4,0.9,93,0.00,,,0.10,WUHU216HW,2013-08-01 12:12:00,
2013-08-01 08:17:00,68.4,65.6,29.93,SSE,158,1.1,1.1,91,0.00,,,0.10,WUHU216HW,2013-08-01 12:17:00,
2013-08-01 08:22:00,68.6,65.8,29.93,West,270,1.8,3.4,91,0.00,,,0.10,WUHU216HW,2013-08-01 12:22:00,
2013-08-01 08:28:00,68.6,65.8,29.93,West,270,1.8,3.4,91,0.00,,,0.10,WUHU216HW,2013-08-01 12:28:00,
2013-08-01 08:33:00,68.6,65.5,29.93,SSW,203,1.8,3.4,90,0.00,,,0.10,WUHU216HW,2013-08-01 12:33:00,
2013-08-01 08:38:00,68.9,66.2,29.94,WSW,248,1.3,1.8,91,0.00,,,0.10,WUHU216HW,2013-08-01 12:38:00,
2013-08-01 08:43:00,69.5,66.7,29.94,West,270,0.9,2.2,91,0.00,,,0.10,WUHU216HW,2013-08-01 12:43:00,
2013-08-01 08:48:00,69.7,66.6,29.94,West,270,1.1,2.7,90,0.00,,,0.10,WUHU216HW,2013-08-01 12:48:00,
2013-08-01 08:54:00,69.5,66.4,29.94,WSW,248,2.2,4.0,90,0.00,,,0.10,WUHU216HW,2013-08-01 12:54:00,
2013-08-01 08:59:00,69.3,66.2,29.94,SW,225,1.6,4.0,90,0.00,,,0.10,WUHU216HW,2013-08-01 12:59:00,
2013-08-01 09:04:00,69.5,66.4,29.94,West,270,3.4,4.0,90,0.00,,,0.10,WUHU216HW,2013-08-01 13:04:00,
2013-08-01 09:10:00,69.5,66.4,29.94,SW,225,0.9,3.6,90,0.00,,,0.10,WUHU216HW,2013-08-01 13:10:00,
2013-08-01 09:15:00,69.8,66.8,29.94,West,270,2.5,3.6,90,0.00,,,0.10,WUHU216HW,2013-08-01 13:15:00,
2013-08-01 09:20:00,70.0,66.2,29.94,WSW,248,3.8,3.8,88,0.00,,,0.10,WUHU216HW,2013-08-01 13:20:00,
2013-08-01 09:26:00,70.0,66.2,29.93,South,180,2.5,3.8,88,0.00,,,0.10,WUHU216HW,2013-08-01 13:26:00,
2013-08-01 09:31:00,70.0,66.2,29.93,South,180,1.3,4.0,88,0.00,,,0.10,WUHU216HW,2013-08-01 13:31:00,
2013-08-01 09:37:00,70.2,66.4,29.93,West,270,3.1,4.0,88,0.00,,,0.10,WUHU216HW,2013-08-01 13:37:00,
2013-08-01 09:42:00,70.7,67.0,29.93,WNW,293,1.8,4.0,88,0.00,,,0.10,WUHU216HW,2013-08-01 13:42:00,
2013-08-01 09:47:00,71.1,67.1,29.93,NW,315,1.8,4.0,87,0.00,,,0.10,WUHU216HW,2013-08-01 13:47:00,
2013-08-01 09:52:00,71.1,66.7,29.93,West,270,2.5,4.5,86,0.00,,,0.10,WUHU216HW,2013-08-01 13:52:00,
2013-08-01 09:57:00,71.1,67.1,29.93,WSW,248,2.0,4.5,87,0.00,,,0.10,WUHU216HW,2013-08-01 13:57:00,
2013-08-01 10:02:00,72.0,67.6,29.93,WSW,248,5.6,5.6,86,0.00,,,0.10,WUHU216HW,2013-08-01 14:02:00,
2013-08-01 10:07:00,72.9,67.4,29.93,WNW,293,4.0,5.6,83,0.00,,,0.10,WUHU216HW,2013-08-01 14:07:00,
2013-08-01 10:13:00,72.9,67.4,29.92,SW,225,3.1,5.4,83,0.00,,,0.10,WUHU216HW,2013-08-01 14:13:00,
2013-08-01 10:19:00,72.4,66.9,29.92,SSW,203,1.8,5.4,83,0.00,,,0.10,WUHU216HW,2013-08-01 14:19:00,
2013-08-01 10:24:00,72.4,67.2,29.92,NW,315,3.6,4.3,84,0.00,,,0.10,WUHU216HW,2013-08-01 14:24:00,
2013-08-01 10:30:00,72.5,66.8,29.92,South,180,2.5,4.3,82,0.00,,,0.10,WUHU216HW,2013-08-01 14:30:00,
2013-08-01 10:35:00,73.4,68.0,29.92,West,270,1.8,4.3,83,0.00,,,0.10,WUHU216HW,2013-08-01 14:35:00,
2013-08-01 10:41:00,74.0,68.5,29.92,WSW,248,1.8,4.0,83,0.00,,,0.10,WUHU216HW,2013-08-01 14:41:00,
2013-08-01 10:46:00,74.2,68.1,29.92,SW,225,3.6,6.0,81,0.00,,,0.10,WUHU216HW,2013-08-01 14:46:00,
2013-08-01 10:51:00,74.0,68.2,29.92,WSW,248,2.9,6.0,82,0.00,,,0.10,WUHU216HW,2013-08-01 14:51:00,
2013-08-01 10:57:00,74.3,68.2,29.91,West,270,1.8,4.0,81,0.00,,,0.10,WUHU216HW,2013-08-01 14:57:00,
2013-08-01 11:02:00,74.5,68.4,29.91,West,270,4.0,4.7,81,0.00,,,0.10,WUHU216HW,2013-08-01 15:02:00,
2013-08-01 11:07:00,74.9,68.4,29.91,South,180,1.1,4.7,80,0.00,,,0.10,WUHU216HW,2013-08-01 15:07:00,
2013-08-01 11:12:00,76.0,68.7,29.91,SSW,203,2.5,4.0,78,0.00,,,0.10,WUHU216HW,2013-08-01 15:12:00,
2013-08-01 11:18:00,76.0,68.7,29.91,WNW,293,4.9,5.1,78,0.00,,,0.10,WUHU216HW,2013-08-01 15:18:00,
2013-08-01 11:23:00,76.5,69.1,29.91,West,270,0.9,5.4,78,0.00,,,0.10,WUHU216HW,2013-08-01 15:23:00,
2013-08-01 11:28:00,77.0,69.2,29.91,West,270,4.0,5.4,77,0.00,,,0.10,WUHU216HW,2013-08-01 15:28:00,
2013-08-01 11:33:00,77.2,68.7,29.91,SW,225,5.4,6.3,75,0.00,,,0.10,WUHU216HW,2013-08-01 15:33:00,
2013-08-01 11:39:00,77.0,68.9,29.91,West,270,4.7,6.3,76,0.00,,,0.10,WUHU216HW,2013-08-01 15:39:00,
2013-08-01 11:46:00,77.0,68.5,29.91,WSW,248,4.0,5.4,75,0.00,,,0.10,WUHU216HW,2013-08-01 15:46:00,
2013-08-01 11:52:00,76.9,68.7,29.91,West,270,3.1,3.1,76,0.00,,,0.10,WUHU216HW,2013-08-01 15:52:00,
2013-08-01 11:57:00,78.3,68.1,29.90,South,180,3.4,4.0,71,0.00,,,0.10,WUHU216HW,2013-08-01 15:57:00,
2013-08-01 12:02:00,78.7,68.9,29.90,West,270,3.4,4.7,72,0.00,,,0.10,WUHU216HW,2013-08-01 16:02:00,
2013-08-01 12:07:00,79.2,69.4,29.90,NW,315,4.0,4.7,72,0.00,,,0.10,WUHU216HW,2013-08-01 16:07:00,
2013-08-01 12:13:00,79.4,68.8,29.90,South,180,3.1,4.5,70,0.00,,,0.10,WUHU216HW,2013-08-01 16:13:00,
2013-08-01 12:18:00,79.6,68.9,29.90,WNW,293,1.1,6.3,70,0.00,,,0.10,WUHU216HW,2013-08-01 16:18:00,
2013-08-01 12:23:00,79.7,69.1,29.89,WSW,248,1.8,6.3,70,0.00,,,0.10,WUHU216HW,2013-08-01 16:23:00,
2013-08-01 12:28:00,79.6,68.9,29.89,NW,315,1.1,4.9,70,0.00,,,0.10,WUHU216HW,2013-08-01 16:28:00,
2013-08-01 12:33:00,80.5,69.8,29.89,NW,315,4.0,4.0,70,0.00,,,0.10,WUHU216HW,2013-08-01 16:33:00,
2013-08-01 12:38:00,81.0,69.0,29.89,West,270,2.9,4.9,67,0.00,,,0.10,WUHU216HW,2013-08-01 16:38:00,
2013-08-01 12:44:00,80.5,68.5,29.89,West,270,3.8,5.4,67,0.00,,,0.10,WUHU216HW,2013-08-01 16:44:00,
2013-08-01 12:50:00,79.7,68.2,29.89,ENE,68,2.9,6.5,68,0.00,,,0.10,WUHU216HW,2013-08-01 16:50:00,
2013-08-01 12:55:00,80.3,69.7,29.89,NW,315,2.5,6.5,70,0.00,,,0.10,WUHU216HW,2013-08-01 16:55:00,
2013-08-01 13:01:00,81.2,69.1,29.89,West,270,4.3,4.7,67,0.00,,,0.10,WUHU216HW,2013-08-01 17:01:00,
2013-08-01 13:07:00,81.4,68.9,29.88,WSW,248,4.0,4.7,66,0.00,,,0.10,WUHU216HW,2013-08-01 17:07:00,
2013-08-01 13:12:00,82.1,69.5,29.88,WNW,293,4.0,4.7,66,0.00,,,0.10,WUHU216HW,2013-08-01 17:12:00,
2013-08-01 13:17:00,82.3,69.7,29.88,NNE,23,1.8,4.0,66,0.00,,,0.10,WUHU216HW,2013-08-01 17:17:00,
2013-08-01 13:22:00,82.6,68.7,29.88,NNW,338,1.6,4.0,63,0.00,,,0.10,WUHU216HW,2013-08-01 17:22:00,
2013-08-01 13:27:00,82.4,68.9,29.88,West,270,1.8,4.0,64,0.00,,,0.10,WUHU216HW,2013-08-01 17:27:00,
2013-08-01 13:33:00,81.7,68.3,29.88,SE,135,0.9,3.1,64,0.00,,,0.10,WUHU216HW,2013-08-01 17:33:00,
2013-08-01 13:38:00,81.2,68.7,29.88,NW,315,1.3,3.1,66,0.00,,,0.10,WUHU216HW,2013-08-01 17:38:00,
2013-08-01 13:43:00,81.4,69.3,29.88,West,270,1.3,3.4,67,0.00,,,0.10,WUHU216HW,2013-08-01 17:43:00,
2013-08-01 13:49:00,82.4,69.8,29.87,ENE,68,1.6,3.4,66,0.00,,,0.10,WUHU216HW,2013-08-01 17:49:00,
2013-08-01 13:54:00,82.8,70.2,29.87,WNW,293,2.7,4.7,66,0.00,,,0.10,WUHU216HW,2013-08-01 17:54:00,
2013-08-01 13:59:00,82.8,68.9,29.86,West,270,3.8,4.7,63,0.00,,,0.10,WUHU216HW,2013-08-01 17:59:00,
2013-08-01 14:05:00,83.3,68.5,29.87,West,270,2.9,5.1,61,0.00,,,0.10,WUHU216HW,2013-08-01 18:05:00,
2013-08-01 14:10:00,83.3,68.5,29.86,WNW,293,0.2,4.7,61,0.00,,,0.10,WUHU216HW,2013-08-01 18:10:00,
2013-08-01 14:15:00,83.9,69.5,29.86,North,0,1.3,4.5,62,0.00,,,0.10,WUHU216HW,2013-08-01 18:15:00,
2013-08-01 14:20:00,83.7,67.3,29.86,NNW,338,3.1,8.3,58,0.00,,,0.10,WUHU216HW,2013-08-01 18:20:00,
2013-08-01 14:26:00,83.9,66.5,29.87,WSW,248,5.1,8.3,56,0.00,,,0.10,WUHU216HW,2013-08-01 18:26:00,
2013-08-01 14:31:00,84.4,67.5,29.86,West,270,1.1,6.7,57,0.00,,,0.10,WUHU216HW,2013-08-01 18:31:00,
2013-08-01 14:36:00,85.1,68.2,29.86,WNW,293,3.6,5.8,57,0.00,,,0.10,WUHU216HW,2013-08-01 18:36:00,
2013-08-01 14:41:00,84.4,67.1,29.86,West,270,5.4,6.3,56,0.00,,,0.10,WUHU216HW,2013-08-01 18:41:00,
2013-08-01 14:47:00,84.2,66.9,29.86,WSW,248,1.3,6.3,56,0.00,,,0.10,WUHU216HW,2013-08-01 18:47:00,
2013-08-01 14:52:00,83.7,67.3,29.86,West,270,1.3,5.1,58,0.00,,,0.10,WUHU216HW,2013-08-01 18:52:00,
2013-08-01 14:58:00,83.2,66.3,29.86,WSW,248,0.4,2.0,57,0.00,,,0.10,WUHU216HW,2013-08-01 18:58:00,
2013-08-01 15:04:00,82.3,67.0,29.86,West,270,3.8,4.0,60,0.00,,,0.10,WUHU216HW,2013-08-01 19:04:00,
2013-08-01 15:09:00,81.0,66.3,29.86,WNW,293,2.9,4.0,61,0.00,,,0.10,WUHU216HW,2013-08-01 19:09:00,
2013-08-01 15:14:00,80.5,66.2,29.86,West,270,2.0,4.0,62,0.00,,,0.10,WUHU216HW,2013-08-01 19:14:00,
2013-08-01 15:20:00,79.9,66.3,29.86,WNW,293,2.0,4.0,63,0.00,,,0.10,WUHU216HW,2013-08-01 19:20:00,
2013-08-01 15:26:00,79.6,66.3,29.86,WNW,293,1.8,3.4,64,0.00,,,0.10,WUHU216HW,2013-08-01 19:26:00,
2013-08-01 15:31:00,79.0,66.7,29.86,West,270,1.8,2.5,66,0.00,,,0.10,WUHU216HW,2013-08-01 19:31:00,
2013-08-01 15:37:00,78.8,66.5,29.86,NW,315,1.1,2.9,66,0.00,,,0.10,WUHU216HW,2013-08-01 19:37:00,
2013-08-01 15:43:00,78.5,66.2,29.86,WNW,293,2.2,2.2,66,0.00,,,0.10,WUHU216HW,2013-08-01 19:43:00,
2013-08-01 15:48:00,78.5,66.6,29.86,West,270,0.4,2.5,67,0.00,,,0.10,WUHU216HW,2013-08-01 19:48:00,
2013-08-01 15:54:00,78.1,66.2,29.86,West,270,2.7,2.7,67,0.00,,,0.10,WUHU216HW,2013-08-01 19:54:00,
2013-08-01 15:59:00,78.1,66.7,29.86,West,270,1.1,2.7,68,0.00,,,0.10,WUHU216HW,2013-08-01 19:59:00,
2013-08-01 16:04:00,77.8,66.8,29.86,WNW,293,2.7,2.7,69,0.00,,,0.10,WUHU216HW,2013-08-01 20:04:00,
2013-08-01 16:10:00,77.6,66.6,29.86,West,270,1.8,2.9,69,0.00,,,0.10,WUHU216HW,2013-08-01 20:10:00,
2013-08-01 16:15:00,77.8,66.8,29.86,WSW,248,2.0,2.9,69,0.00,,,0.10,WUHU216HW,2013-08-01 20:15:00,
2013-08-01 16:20:00,78.1,67.6,29.86,West,270,2.9,3.4,70,0.00,,,0.10,WUHU216HW,2013-08-01 20:20:00,
2013-08-01 16:25:00,78.1,67.2,29.86,West,270,0.9,4.7,69,0.00,,,0.10,WUHU216HW,2013-08-01 20:25:00,
2013-08-01 16:30:00,77.9,67.4,29.86,West,270,2.5,4.7,70,0.00,,,0.10,WUHU216HW,2013-08-01 20:30:00,
2013-08-01 16:35:00,77.8,65.9,29.85,West,270,2.0,4.7,67,0.00,,,0.10,WUHU216HW,2013-08-01 20:35:00,
2013-08-01 16:40:00,77.8,66.8,29.85,WSW,248,2.2,4.7,69,0.00,,,0.10,WUHU216HW,2013-08-01 20:40:00,
2013-08-01 16:41:00,77.8,67.2,29.86,SW,225,2.2,4.7,70,0.00,,,0.10,WUHU216HW,2013-08-01 20:41:00,
2013-08-01 16:46:00,77.4,67.7,29.86,SSW,203,2.0,4.0,72,0.00,,,0.10,WUHU216HW,2013-08-01 20:46:00,
2013-08-01 16:51:00,77.0,67.0,29.86,SSW,203,2.2,3.6,71,0.00,,,0.10,WUHU216HW,2013-08-01 20:51:00,
2013-08-01 16:56:00,76.7,67.0,29.86,SW,225,1.8,3.8,72,0.00,,,0.10,WUHU216HW,2013-08-01 20:56:00,
2013-08-01 17:01:00,76.3,67.4,29.86,WSW,248,4.9,4.9,74,0.00,,,0.10,WUHU216HW,2013-08-01 21:01:00,
2013-08-01 17:07:00,76.0,67.5,29.86,SSW,203,1.8,5.4,75,0.00,,,0.10,WUHU216HW,2013-08-01 21:07:00,
2013-08-01 17:12:00,76.0,67.9,29.86,SSW,203,1.1,5.4,76,0.00,,,0.10,WUHU216HW,2013-08-01 21:12:00,
2013-08-01 17:17:00,76.3,67.1,29.86,SSW,203,4.0,4.0,73,0.00,,,0.10,WUHU216HW,2013-08-01 21:17:00,
2013-08-01 17:22:00,76.3,67.4,29.86,SW,225,2.5,4.0,74,0.00,,,0.10,WUHU216HW,2013-08-01 21:22:00,
2013-08-01 17:27:00,76.3,67.1,29.86,SW,225,2.5,3.8,73,0.00,,,0.10,WUHU216HW,2013-08-01 21:27:00,
2013-08-01 17:32:00,76.3,67.1,29.86,West,270,1.3,3.6,73,0.00,,,0.10,WUHU216HW,2013-08-01 21:32:00,
2013-08-01 17:37:00,77.0,67.8,29.86,West,270,1.6,3.1,73,0.00,,,0.10,WUHU216HW,2013-08-01 21:37:00,
2013-08-01 17:42:00,77.9,67.8,29.86,SW,225,3.1,4.3,71,0.00,,,0.10,WUHU216HW,2013-08-01 21:42:00,
2013-08-01 17:47:00,78.5,67.9,29.86,ESE,113,2.5,4.3,70,0.00,,,0.10,WUHU216HW,2013-08-01 21:47:00,
2013-08-01 17:52:00,78.7,67.6,29.85,SSW,203,1.8,3.1,69,0.00,,,0.10,WUHU216HW,2013-08-01 21:52:00,
2013-08-01 17:58:00,78.5,67.5,29.85,SSW,203,1.6,2.7,69,0.00,,,0.10,WUHU216HW,2013-08-01 21:58:00,
2013-08-01 18:03:00,78.5,67.1,29.85,SE,135,2.5,2.7,68,0.00,,,0.10,WUHU216HW,2013-08-01 22:03:00,
2013-08-01 18:08:00,79.0,67.5,29.85,SSW,203,2.2,3.6,68,0.00,,,0.10,WUHU216HW,2013-08-01 22:08:00,
2013-08-01 18:14:00,79.2,67.7,29.85,SSW,203,2.2,4.0,68,0.00,,,0.10,WUHU216HW,2013-08-01 22:14:00,
2013-08-01 18:19:00,79.2,67.2,29.85,SSW,203,2.5,4.7,67,0.00,,,0.10,WUHU216HW,2013-08-01 22:19:00,
2013-08-01 18:24:00,78.8,67.0,29.85,SW,225,2.0,4.7,67,0.00,,,0.10,WUHU216HW,2013-08-01 22:24:00,
2013-08-01 18:29:00,78.7,66.8,29.85,SSW,203,3.4,3.8,67,0.00,,,0.10,WUHU216HW,2013-08-01 22:29:00,
2013-08-01 18:34:00,78.1,67.2,29.86,SSW,203,1.6,3.4,69,0.00,,,0.10,WUHU216HW,2013-08-01 22:34:00,
2013-08-01 18:39:00,77.4,66.5,29.86,SW,225,1.8,3.4,69,0.00,,,0.10,WUHU216HW,2013-08-01 22:39:00,
2013-08-01 18:44:00,77.2,66.8,29.86,SSE,158,0.2,3.4,70,0.00,,,0.10,WUHU216HW,2013-08-01 22:44:00,
2013-08-01 18:50:00,77.0,67.0,29.86,SW,225,0.7,3.4,71,0.00,,,0.10,WUHU216HW,2013-08-01 22:50:00,
2013-08-01 18:55:00,76.9,67.1,29.86,West,270,1.3,1.3,72,0.00,,,0.10,WUHU216HW,2013-08-01 22:55:00,
2013-08-01 19:00:00,76.5,67.6,29.86,West,270,1.3,1.8,74,0.00,,,0.10,WUHU216HW,2013-08-01 23:00:00,
2013-08-01 19:05:00,76.1,67.2,29.86,WNW,293,0.4,2.0,74,0.00,,,0.10,WUHU216HW,2013-08-01 23:05:00,
2013-08-01 19:10:00,76.0,67.9,29.88,West,270,2.7,3.1,76,0.00,,,0.10,WUHU216HW,2013-08-01 23:10:00,
2013-08-01 19:15:00,75.6,68.0,29.89,WNW,293,3.1,7.4,77,0.00,,,0.10,WUHU216HW,2013-08-01 23:15:00,
2013-08-01 19:20:00,75.2,68.0,29.88,West,270,3.4,7.4,78,0.01,,,0.11,WUHU216HW,2013-08-01 23:20:00,
2013-08-01 19:25:00,75.2,68.8,29.88,SW,225,2.5,5.1,80,0.02,,,0.12,WUHU216HW,2013-08-01 23:25:00,
2013-08-01 19:31:00,75.1,69.0,29.88,SSW,203,1.8,5.1,81,0.02,,,0.12,WUHU216HW,2013-08-01 23:31:00,
2013-08-01 19:36:00,74.5,69.0,29.89,West,270,3.4,3.6,83,0.02,,,0.12,WUHU216HW,2013-08-01 23:36:00,
2013-08-01 19:41:00,74.2,68.4,29.89,West,270,4.3,4.3,82,0.02,,,0.12,WUHU216HW,2013-08-01 23:41:00,
2013-08-01 19:46:00,73.8,68.3,29.88,West,270,2.9,4.3,83,0.02,,,0.12,WUHU216HW,2013-08-01 23:46:00,
2013-08-01 19:51:00,73.4,67.7,29.88,West,270,1.8,4.3,82,0.02,,,0.12,WUHU216HW,2013-08-01 23:51:00,
2013-08-01 19:56:00,73.4,68.3,29.89,West,270,2.0,3.4,84,0.02,,,0.12,WUHU216HW,2013-08-01 23:56:00,
2013-08-01 20:02:00,73.3,68.1,29.89,South,180,3.1,3.1,84,0.02,,,0.12,WUHU216HW,2013-08-02 00:02:00,
2013-08-01 20:07:00,72.4,67.2,29.89,SSW,203,1.8,3.1,84,0.02,,,0.12,WUHU216HW,2013-08-02 00:07:00,
2013-08-01 20:12:00,71.8,67.4,29.89,SSW,203,1.8,2.7,86,0.02,,,0.12,WUHU216HW,2013-08-02 00:12:00,
2013-08-01 20:17:00,71.5,67.7,29.89,SW,225,1.8,2.7,88,0.01,,,0.12,WUHU216HW,2013-08-02 00:17:00,
2013-08-01 20:22:00,71.1,67.3,29.90,West,270,1.6,2.9,88,0.01,,,0.12,WUHU216HW,2013-08-02 00:22:00,
2013-08-01 20:27:00,70.9,67.1,29.90,WSW,248,1.8,2.9,88,0.00,,,0.12,WUHU216HW,2013-08-02 00:27:00,
2013-08-01 20:32:00,70.7,67.3,29.89,SW,225,2.7,3.4,89,0.00,,,0.12,WUHU216HW,2013-08-02 00:32:00,
2013-08-01 20:37:00,70.6,67.1,29.90,SW,225,2.7,4.7,89,0.00,,,0.12,WUHU216HW,2013-08-02 00:37:00,
2013-08-01 20:42:00,70.4,67.3,29.90,SW,225,1.3,4.7,90,0.00,,,0.12,WUHU216HW,2013-08-02 00:42:00,
2013-08-01 20:48:00,70.2,67.1,29.90,WSW,248,1.8,3.8,90,0.00,,,0.12,WUHU216HW,2013-08-02 00:48:00,
2013-08-01 20:53:00,70.0,67.0,29.90,SW,225,2.2,2.7,90,0.00,,,0.12,WUHU216HW,2013-08-02 00:53:00,
2013-08-01 20:58:00,69.8,66.8,29.90,WSW,248,2.0,3.4,90,0.00,,,0.12,WUHU216HW,2013-08-02 00:58:00,
2013-08-01 21:04:00,69.8,66.4,29.90,West,270,0.9,3.4,89,0.00,,,0.12,WUHU216HW,2013-08-02 01:04:00,
2013-08-01 21:09:00,69.8,66.8,29.90,SW,225,1.1,2.2,90,0.00,,,0.12,WUHU216HW,2013-08-02 01:09:00,
2013-08-01 21:14:00,69.7,66.6,29.90,SSW,203,2.0,2.2,90,0.00,,,0.12,WUHU216HW,2013-08-02 01:14:00,
2013-08-01 21:20:00,69.5,66.4,29.90,South,180,0.7,2.2,90,0.00,,,0.12,WUHU216HW,2013-08-02 01:20:00,
2013-08-01 21:25:00,69.5,66.1,29.90,SE,135,0.7,1.8,89,0.00,,,0.12,WUHU216HW,2013-08-02 01:25:00,
2013-08-01 21:30:00,69.3,66.2,29.90,SSW,203,0.7,1.6,90,0.00,,,0.12,WUHU216HW,2013-08-02 01:30:00,
2013-08-01 21:35:00,68.9,65.5,29.90,SSW,203,2.2,2.5,89,0.00,,,0.12,WUHU216HW,2013-08-02 01:35:00,
2013-08-01 21:40:00,68.9,65.5,29.90,South,180,0.9,2.5,89,0.00,,,0.12,WUHU216HW,2013-08-02 01:40:00,
2013-08-01 21:45:00,68.8,65.1,29.90,SW,225,0.7,2.5,88,0.00,,,0.12,WUHU216HW,2013-08-02 01:45:00,
2013-08-01 21:50:00,68.8,65.1,29.90,SW,225,0.2,1.1,88,0.00,,,0.12,WUHU216HW,2013-08-02 01:50:00,
2013-08-01 21:56:00,68.4,65.0,29.91,SW,225,1.8,2.0,89,0.00,,,0.12,WUHU216HW,2013-08-02 01:56:00,
2013-08-01 22:01:00,68.2,64.5,29.91,SW,225,1.1,2.9,88,0.00,,,0.12,WUHU216HW,2013-08-02 02:01:00,
2013-08-01 22:06:00,68.0,64.6,29.91,SW,225,0.7,2.9,89,0.00,,,0.12,WUHU216HW,2013-08-02 02:06:00,
2013-08-01 22:11:00,68.0,64.6,29.91,SSW,203,0.0,2.2,89,0.00,,,0.12,WUHU216HW,2013-08-02 02:11:00,
2013-08-01 22:16:00,67.9,64.4,29.91,SSW,203,0.9,1.6,89,0.00,,,0.12,WUHU216HW,2013-08-02 02:16:00,
2013-08-01 22:21:00,67.7,64.0,29.91,SSW,203,0.0,1.1,88,0.00,,,0.12,WUHU216HW,2013-08-02 02:21:00,
2013-08-01 22:26:00,67.5,64.1,29.91,SW,225,0.2,0.9,89,0.00,,,0.12,WUHU216HW,2013-08-02 02:26:00,
2013-08-01 22:31:00,67.3,64.3,29.91,West,270,0.9,1.8,90,0.00,,,0.12,WUHU216HW,2013-08-02 02:31:00,
2013-08-01 22:36:00,67.3,63.9,29.91,West,270,2.2,2.5,89,0.00,,,0.12,WUHU216HW,2013-08-02 02:36:00,
2013-08-01 22:42:00,67.5,64.4,29.91,SSW,203,1.1,2.5,90,0.00,,,0.12,WUHU216HW,2013-08-02 02:42:00,
2013-08-01 22:47:00,67.1,64.1,29.91,SSW,203,0.2,1.6,90,0.00,,,0.12,WUHU216HW,2013-08-02 02:47:00,
2013-08-01 22:52:00,67.0,63.9,29.91,SSW,203,1.3,1.8,90,0.00,,,0.12,WUHU216HW,2013-08-02 02:52:00,
2013-08-01 22:57:00,67.0,63.9,29.91,SW,225,1.8,2.0,90,0.00,,,0.12,WUHU216HW,2013-08-02 02:57:00,
2013-08-01 23:02:00,67.0,63.9,29.91,WSW,248,0.9,2.0,90,0.00,,,0.12,WUHU216HW,2013-08-02 03:02:00,
2013-08-01 23:07:00,66.8,63.7,29.91,SW,225,1.1,1.8,90,0.00,,,0.12,WUHU216HW,2013-08-02 03:07:00,
2013-08-01 23:12:00,66.6,63.5,29.91,SW,225,2.0,2.0,90,0.00,,,0.12,WUHU216HW,2013-08-02 03:12:00,
2013-08-01 23:17:00,66.6,63.5,29.91,WSW,248,0.9,2.2,90,0.00,,,0.12,WUHU216HW,2013-08-02 03:17:00,
2013-08-01 23:23:00,66.6,63.8,29.91,SW,225,1.6,2.2,91,0.00,,,0.12,WUHU216HW,2013-08-02 03:23:00,
2013-08-01 23:28:00,66.6,63.8,29.91,SSW,203,1.6,1.6,91,0.00,,,0.12,WUHU216HW,2013-08-02 03:28:00,
2013-08-01 23:33:00,66.6,63.8,29.91,SSW,203,0.7,1.8,91,0.00,,,0.12,WUHU216HW,2013-08-02 03:33:00,
2013-08-01 23:38:00,66.6,63.8,29.91,SSW,203,2.0,2.0,91,0.00,,,0.12,WUHU216HW,2013-08-02 03:38:00,
2013-08-01 23:43:00,66.6,63.8,29.91,SSW,203,0.2,2.0,91,0.00,,,0.12,WUHU216HW,2013-08-02 03:43:00,
2013-08-01 23:48:00,66.4,63.6,29.91,SW,225,1.8,2.0,91,0.00,,,0.12,WUHU216HW,2013-08-02 03:48:00,
2013-08-01 23:53:00,66.2,63.5,29.91,SSW,203,1.1,1.8,91,0.00,,,0.12,WUHU216HW,2013-08-02 03:53:00,
2013-08-01 23:58:00,66.1,63.4,29.91,SW,225,1.1,2.0,91,0.00,,,0.12,WUHU216HW,2013-08-02 03:58:00,